Location: Arleux
(50.3632°N, 2.8721°E)
Time: 13:52:50
(UTC+00:00)

AO-7 - Visible Passes

Search period start: 06 May 2021 00:00
Search period end: 16 May 2021 00:00
Orbit: 1439 x 1459 km, 101.9° (Epoch: 05 May)

Date Brightness Start Highest point End Pass type
(mag) Time Alt. Az. Time Alt. Az. Time Alt. Az.
06 May ? 03:01:42 10° NNE 03:09:09 35° E 03:16:32 10° SSE visible
07 May ? 02:03:34 10° NE 02:08:06 15° E 02:12:36 10° ESE visible
08 May ? 02:54:46 10° NNE 03:02:01 32° E 03:09:12 10° SSE visible
09 May ? 01:57:02 10° NE 02:00:53 14° E 02:04:42 10° ESE visible
10 May ? 02:47:52 10° NE 02:54:53 29° E 03:01:51 10° SSE visible
11 May ? 01:50:44 10° ENE 01:53:40 12° E 01:56:35 10° ESE visible
12 May ? 02:40:58 10° NE 02:47:44 27° E 02:54:27 10° SSE visible
13 May ? 01:44:58 10° ENE 01:46:25 10° E 01:47:52 10° E visible
14 May ? 02:34:06 10° NE 02:40:35 24° E 02:47:00 10° SE visible
